DW4127 Weather Reports


Display with metric or nautical units.
time (UTC)temp
F
wind
direction
speed
MPH
gust
MPH
rain 1hr
in
rain 24hr
in
rain mn
in
humidity
%
barometer
mb
20260904060036 81 113 4.0 10.0 0.00 0.00 0.00 75 1012.6
20260904055036 81 113 4.0 10.0 0.00 0.00 0.00 75 1012.6
20260904054036 81 113 5.0 11.0 0.00 0.00 0.00 74 1012.6
20260904053037 81 113 3.0 10.0 0.00 0.00 0.00 74 1012.6
20260904052037 81 113 5.0 13.0 0.00 0.00 0.00 73 1012.5
20260904051036 81 113 4.0 7.0 0.00 0.00 0.00 72 1012.5
20260904050612 81 135 3.0 3.0 0.00 0.00 0.00 72 1012.5
20260904045535 81 113 5.0 10.0 0.00 0.00 0.00 72 1012.4
20260904044616 81 113 5.0 10.0 0.00 0.00 0.00 72 1012.4
20260904043535 82 113 5.0 12.0 0.00 0.00 0.00 71 1012.5
20260904042536 82 113 4.0 11.0 0.00 0.00 0.00 71 1012.6
20260904041535 82 113 3.0 8.0 0.00 0.00 0.00 70 1012.7
20260904040536 82 113 4.0 10.0 0.00 0.00 0.00 70 1012.6
20260904035536 82 113 5.0 8.0 0.00 0.00 0.00 69 1012.7
20260904034635 82 113 3.0 8.0 0.00 0.00 0.00 68 1012.6
20260904033535 82 90 3.0 10.0 0.00 0.00 0.00 68 1012.7
20260904032535 82 113 3.0 10.0 0.00 0.00 0.00 68 1012.7
20260904031556 83 113 4.0 10.0 0.00 0.00 0.00 68 1012.7
20260904030535 83 113 4.0 10.0 0.00 0.00 0.00 68 1012.6
20260904025535 83 90 4.0 8.0 0.00 0.00 0.00 68 1012.4
20260904024535 83 90 4.0 8.0 0.00 0.00 0.00 68 1012.3
20260904023536 83 113 4.0 11.0 0.00 0.00 0.00 69 1012.1
20260904022536 83 90 4.0 9.0 0.00 0.00 0.00 70 1011.8
20260904021535 84 90 5.0 11.0 0.00 0.00 0.00 70 1011.7
20260904020555 84 90 5.0 9.0 0.00 0.00 0.00 71 1011.6
20260904015535 84 90 5.0 10.0 0.00 0.00 0.00 70 1011.4
20260904014535 85 90 6.0 11.0 0.00 0.00 0.00 70 1011.2
20260904013535 85 90 6.0 12.0 0.00 0.00 0.00 69 1011.2
20260904012535 85 90 4.0 11.0 0.00 0.00 0.00 69 1011.1
20260904011536 85 90 5.0 10.0 0.00 0.00 0.00 68 1011.0
20260904010535 86 90 4.0 10.0 0.00 0.00 0.00 67 1010.9
20260904005535 86 90 4.0 11.0 0.00 0.00 0.00 66 1011.0
20260904004550 86 90 6.0 13.0 0.00 0.00 0.00 66 1011.0
20260904003535 87 90 7.0 13.0 0.00 0.00 0.00 65 1010.9
20260904002535 87 90 6.0 11.0 0.00 0.00 0.00 63 1010.8
20260904001535 87 90 7.0 12.0 0.00 0.00 0.00 63 1010.7
20260904000536 88 90 7.0 12.0 0.00 0.00 0.00 63 1010.7
20260903235535 88 135 6.0 16.0 0.00 0.00 0.00 63 1010.7
20260903234535 88 135 6.0 13.0 0.00 0.00 0.00 64 1010.7
20260903233535 89 158 8.0 15.0 0.00 0.00 0.00 64 1010.6
20260903232535 89 90 8.0 15.0 0.00 0.00 0.00 63 1010.4
20260903231535 90 113 6.0 13.0 0.00 0.00 0.00 62 1010.4
20260903230555 90 90 5.0 12.0 0.00 0.00 0.00 63 1010.4
20260903225535 91 113 7.0 12.0 0.00 0.00 0.00 59 1010.5
20260903224535 91 113 7.0 12.0 0.00 0.00 0.00 59 1010.5
20260903223535 92 90 7.0 14.0 0.00 0.00 0.00 58 1010.3
20260903222535 92 90 7.0 11.0 0.00 0.00 0.00 57 1010.2
20260903221555 92 113 7.0 15.0 0.00 0.00 0.00 58 1010.4
20260903220535 92 113 8.0 15.0 0.00 0.00 0.00 57 1010.4
20260903215535 93 113 5.0 11.0 0.00 0.00 0.00 58 1010.5
20260903214535 92 90 6.0 12.0 0.00 0.00 0.00 58 1010.7
20260903213535 92 113 8.0 13.0 0.00 0.00 0.00 59 1010.7
20260903212535 91 113 6.0 12.0 0.00 0.00 0.00 61 1010.8
20260903211535 92 113 6.0 12.0 0.00 0.00 0.00 60 1010.9
20260903210535 91 180 5.0 11.0 0.00 0.00 0.00 61 1010.9
20260903205555 91 113 7.0 15.0 0.00 0.00 0.00 61 1011.0
20260903204555 91 135 6.0 13.0 0.00 0.00 0.00 62 1011.2
20260903203555 91 158 5.0 14.0 0.00 0.00 0.00 62 1011.3
20260903202535 91 135 5.0 16.0 0.00 0.00 0.00 62 1011.5
20260903201535 91 0 5.0 11.0 0.00 0.00 0.00 64 1011.6
20260903200535 90 180 6.0 11.0 0.00 0.00 0.00 63 1011.6
20260903195615 90 135 7.0 14.0 0.00 0.00 0.00 65 1011.5
20260903194535 87 113 6.0 12.0 0.00 0.00 0.00 68 1011.6
20260903193535 86 113 7.0 13.0 0.00 0.00 0.00 68 1011.8
20260903192555 86 90 8.0 14.0 0.00 0.00 0.00 69 1011.9
20260903191555 86 113 7.0 15.0 0.00 0.00 0.00 69 1012.1
20260903190535 87 113 7.0 14.0 0.00 0.00 0.00 68 1012.2
20260903185535 87 158 6.0 16.0 0.00 0.00 0.00 69 1012.4
20260903184555 87 90 6.0 14.0 0.00 0.00 0.00 69 1012.5
20260903183537 86 113 6.0 14.0 0.00 0.00 0.00 70 1012.6
20260903182537 85 113 7.0 14.0 0.00 0.00 0.00 72 1012.6
20260903181537 85 135 7.0 11.0 0.00 0.00 0.00 72 1012.8
20260903180537 85 135 7.0 15.0 0.00 0.00 0.00 72 1012.9
20260903175557 85 113 7.0 19.0 0.00 0.00 0.00 72 1013.0
20260903174557 84 113 8.0 19.0 0.00 0.00 0.00 74 1013.1
20260903173537 84 113 9.0 17.0 0.00 0.00 0.00 75 1013.2
20260903172537 83 113 8.0 16.0 0.00 0.00 0.00 76 1013.2
20260903171537 83 90 8.0 17.0 0.00 0.00 0.00 77 1013.2
20260903170537 83 90 5.0 12.0 0.00 0.00 0.00 78 1013.3
20260903165537 83 113 7.0 14.0 0.00 0.00 0.00 79 1013.3
20260903164557 83 113 6.0 11.0 0.00 0.00 0.00 78 1013.2
20260903163537 83 90 6.0 11.0 0.00 0.00 0.00 79 1013.1
20260903162537 83 113 5.0 10.0 0.00 0.00 0.00 79 1013.2
20260903161537 83 90 5.0 11.0 0.00 0.00 0.00 79 1013.1
20260903160537 83 90 6.0 10.0 0.00 0.00 0.00 80 1013.1
20260903155537 82 135 4.0 13.0 0.00 0.00 0.00 81 1013.0
20260903154535 81 113 4.0 11.0 0.00 0.00 0.00 83 1013.1
20260903153537 81 113 6.0 9.0 0.00 0.00 0.00 83 1013.0
20260903152537 81 113 3.0 7.0 0.00 0.00 0.00 84 1013.0
20260903151557 81 113 4.0 9.0 0.00 0.00 0.00 84 1013.1
20260903150537 81 113 3.0 6.0 0.00 0.00 0.00 84 1013.1
20260903145537 81 113 3.0 10.0 0.00 0.00 0.00 84 1013.1
20260903144537 80 113 4.0 8.0 0.00 0.00 0.00 84 1013.0
20260903143537 80 90 2.0 7.0 0.00 0.00 0.00 85 1013.1
20260903142537 80 113 3.0 7.0 0.00 0.00 0.00 86 1013.1
20260903141537 79 113 4.0 9.0 0.00 0.00 0.00 86 1013.1
20260903140537 79 90 4.0 8.0 0.00 0.00 0.00 86 1013.2
20260903135537 79 113 3.0 7.0 0.00 0.00 0.00 87 1013.3
20260903134537 79 135 2.0 8.0 0.00 0.00 0.00 87 1013.3
20260903133537 78 113 4.0 10.0 0.00 0.00 0.00 87 1013.3
20260903132537 78 113 5.0 11.0 0.00 0.00 0.00 87 1013.1
20260903131537 78 113 4.0 9.0 0.00 0.00 0.00 87 1013.0
20260903130557 78 135 4.0 8.0 0.00 0.00 0.00 87 1012.8
20260903125557 78 113 4.0 8.0 0.00 0.00 0.00 87 1012.8
20260903124537 78 135 3.0 6.0 0.00 0.00 0.00 87 1012.8
20260903123557 78 113 5.0 8.0 0.00 0.00 0.00 87 1012.6
20260903122537 78 113 4.0 9.0 0.00 0.00 0.00 87 1012.7
20260903121537 78 113 4.0 7.0 0.00 0.00 0.00 87 1012.5
20260903120537 78 113 3.0 7.0 0.00 0.00 0.00 87 1012.6
20260903115537 78 90 3.0 8.0 0.00 0.00 0.00 87 1012.4
20260903114537 77 135 3.0 4.0 0.00 0.00 0.00 87 1012.1
20260903113537 77 135 3.0 8.0 0.00 0.00 0.00 87 1012.3
20260903112557 77 135 2.0 4.0 0.00 0.00 0.00 87 1012.3
20260903111537 77 113 2.0 6.0 0.00 0.00 0.00 87 1012.2
20260903110556 77 113 3.0 4.0 0.00 0.00 0.00 87 1012.4
20260903105537 77 113 2.0 8.0 0.00 0.00 0.00 87 1012.3
20260903104537 77 135 2.0 5.0 0.00 0.00 0.00 87 1012.2
20260903103536 77 90 3.0 7.0 0.00 0.00 0.00 86 1012.2
20260903102537 77 90 3.0 8.0 0.00 0.00 0.00 86 1012.1
20260903101536 77 90 3.0 7.0 0.00 0.00 0.00 85 1012.0
20260903100537 78 90 2.0 4.0 0.00 0.00 0.00 85 1012.1
20260903095536 78 90 3.0 5.0 0.00 0.00 0.00 84 1012.3
20260903094537 78 90 4.0 9.0 0.00 0.00 0.00 84 1012.3
20260903093557 78 90 2.0 5.0 0.00 0.00 0.00 85 1012.3
20260903092537 78 135 1.0 3.0 0.00 0.00 0.00 87 1012.1
20260903091536 77 90 1.0 3.0 0.00 0.00 0.00 87 1012.1
20260903090537 77 90 2.0 7.0 0.00 0.00 0.00 88 1012.2
20260903085536 78 90 3.0 9.0 0.00 0.00 0.00 87 1012.2
20260903084536 78 0.0 7.0 0.00 0.00 0.00 87 1012.1
20260903083537 77 0.0 0.0 0.00 0.00 0.00 87 1012.0
20260903082537 78 0.0 2.0 0.00 0.00 0.00 87 1012.0
20260903081537 78 68 1.0 3.0 0.00 0.00 0.00 87 1012.0
20260903080537 78 68 2.0 5.0 0.00 0.00 0.00 86 1011.9
20260903075537 78 68 2.0 4.0 0.00 0.00 0.00 85 1011.9
20260903074537 78 68 2.0 5.0 0.00 0.00 0.00 85 1011.9
20260903073536 78 90 1.0 4.0 0.00 0.00 0.00 83 1011.8
20260903072537 79 68 2.0 4.0 0.00 0.00 0.00 82 1012.0
20260903071537 80 68 2.0 9.0 0.00 0.00 0.00 80 1012.0
20260903070536 80 68 3.0 9.0 0.00 0.00 0.00 80 1012.0
20260903065536 80 68 2.0 7.0 0.00 0.00 0.00 80 1011.9
20260903064536 80 68 1.0 4.0 0.00 0.00 0.00 81 1012.0
20260903063616 79 68 1.0 4.0 0.00 0.00 0.00 81 1012.0
20260903062536 79 68 2.0 7.0 0.00 0.00 0.00 80 1012.1
20260903061536 80 68 2.0 8.0 0.00 0.00 0.00 79 1012.0